Flag for Angola Weather past 2 weeks in Lubango, Angola

Now
70 °F

Clear.


Feels Like: 70 °F
Forecast: 56 / 74 °F
Wind: 7 mph from Southwest

Location: Ondangwa

Current Time: Dec 21, 2014 at 6:34:21 AM

Latest Report: Dec 21, 2014 at 6:00 AM


Visibility: 10 mi

Pressure: 29.95 "Hg

Humidity: 43%

Dew point: 46 °F

Location of LubangoLocation

Historic Weather in Lubango — Graph

°F

Lubango temperature yesterday

Maximum temperature yesterday: 99 °F (at 3:00 PM)
Minimum temperature yesterday: 70 °F (at 4:00 AM)
Average temperature yesterday: 83 °F

Past Weeks' High & Low Weather Summary

 TemperatureHumidityPressure
High99 °F (Dec 20, 3:00 PM)94% (Dec 11, 7:00 AM)30.07 "Hg (Dec 11, 7:00 AM)
Low64 °F (Dec 16, 6:00 AM)8% (Dec 17, 10:00 AM)29.83 "Hg (Dec 20, 6:00 PM)
Average79 °F39%29.98 "Hg
* Reported Dec 6 6:00 AM — Dec 21 5:00 AM, Lubango, Weather by CustomWeather, © 2014

Note: Actual official high and low records may vary slightly from our data, if they occured in-between our weather recording intervals... More about our weather records

Advertising

Lubango weather history for previous 24 hours

 ConditionsComfort  
Time TempWeatherWind HumidityBarometerVisibility
5:00 AM
Dec 21
72 °FMild.8 mph41%29.92 "HgN/A
4:00 AM73 °FMild.8 mph38%29.92 "HgN/A
3:00 AM75 °FMild.9 mph36%29.92 "HgN/A
2:00 AM75 °FMild.6 mph34%29.92 "HgN/A
1:00 AM77 °FPleasantly warm.5 mph30%29.92 "HgN/A
12:00 AM79 °FPleasantly warm.6 mph28%29.95 "HgN/A
11:00 PM
Dec 20
82 °FPleasantly warm.13 mph26%29.92 "HgN/A
10:00 PM82 °FPleasantly warm.7 mph26%29.92 "HgN/A
9:00 PM84 °FPleasantly warm.5 mph25%29.89 "HgN/A
8:00 PM86 °FPleasantly warm.5 mph24%29.86 "HgN/A
7:00 PM88 °FPleasantly warm.5 mph21%29.86 "HgN/A
6:00 PM95 °FExtremely hot.6 mph14%29.83 "HgN/A
4:00 PM99 °FExtremely hot.3 mph13%29.86 "HgN/A
3:00 PM99 °FExtremely hot.3 mph14%29.89 "HgN/A
2:00 PM97 °FExtremely hot.7 mph14%29.92 "HgN/A
1:00 PM95 °FSunny.5 mph15%29.98 "Hg10 mi
12:00 PM95 °FSunny.5 mph15%29.98 "Hg10 mi
11:00 AM90 °FSunny.5 mph21%30.01 "Hg10 mi
10:00 AM86 °FSunny.6 mph25%30.01 "Hg10 mi
9:00 AM81 °FSunny.5 mph32%30.04 "Hg10 mi
8:00 AM77 °FSunny.6 mph36%30.04 "Hg10 mi
7:00 AM72 °FMild.8 mph47%30.01 "HgN/A
6:00 AM70 °FMild.7 mph50%30.01 "HgN/A
Weather by CustomWeather, © 2014

See weather overviewHow to use our weather pages